AirNav   Bose ProFlight Series 2 Headset
 
 1278 users online  

71J Ozark-Blackwell Field Airport
Ozark, Alabama, USA

GOING TO OZARK?


FAA INFORMATION EFFECTIVE 26 MARCH 2020

Location

FAA Identifier: 71J
Lat/Long: 31-25-54.5232N 085-37-13.9221W
31-25.908720N 085-37.232035W
31.4318120,-85.6205339
(estimated)
Elevation: 357.9 ft. / 109.1 m (surveyed)
Variation: 04W (2015)
From city: 2 miles SE of OZARK, AL
Time zone: UTC -5 (UTC -6 during Standard Time)
Zip code: 36360

Airport Operations

Airport use: Open to the public
Activation date: 06/1956
Control tower: no
ARTCC: JACKSONVILLE CENTER
FSS: ANNISTON FLIGHT SERVICE STATION
NOTAMs facility: ANB (NOTAM-D service available)
Attendance: 0800-1700
AFT HRS SVC CALL 334-432-0039.
Wind indicator: lighted
Segmented circle: yes
Lights: ACTVT REIL RWY 13 & 31; PAPI RWY 13 & 31; MIRL RWY 13/31 - CTAF.
Beacon: white-green (lighted land airport)
Operates sunset to sunrise.

Airport Communications

CTAF/UNICOM: 122.7
CAIRNS APPROACH: 125.4 [0600-2300]
CAIRNS DEPARTURE: 125.4 [0600-2300]
WX ASOS at DHN (11 nm SE): PHONE 334-983-5999
WX AWOS-3PT at EDN (16 nm SW): 118.9 (334-347-3524)
  • APCH/DEP SVC PRVDD BY JACKSONVILLE ARTCC ON FREQS 134.3/353.5 (DOTHAN RCAG) WHEN CAIRNS APCH/DEP CLSD.

Nearby radio navigation aids

VOR radial/distance  VOR name  Freq  Var
HEYr029/(3.8)HANCHEY VOR110.6003W
OZRr032/11.2CAIRNS VOR/DME111.2003W
RRSr310/13.1WIREGRASS VORTAC111.6002E
EDNr064/(16.6)ENTERPRISE VOR116.6003W
EUFr217/39.9EUFAULA VORTAC109.2002E

 
NDB name  Hdg/Dist  Freq  Var  ID
HANCHEY030/3.822103WHYE .... -.-- .
LOWE059/7.626903WLOR .-.. --- .-.
BOLL WEEVIL076/19.335203WBVG -... ...- --.
BLOOD138/34.536504WTOI - --- ..
SOYYA331/39.332902WSMY ... -- -.--

Airport Services

Fuel available: 100LL JET-A+
24 HR CREDIT CARD SVC AVBL.
Parking: tiedowns
Airframe service: MAJOR
Powerplant service: MAJOR
Bottled oxygen: NONE
Bulk oxygen: NONE

Runway Information

Runway 13/31

Dimensions: 5152 x 80 ft. / 1570 x 24 m
Surface: asphalt, in fair condition
Weight bearing capacity: 
Double wheel: 25.0
Runway edge lights: medium intensity
RUNWAY 13  RUNWAY 31
Latitude: 31-26.129053N31-25.688437N
Longitude: 085-37.655898W085-36.808283W
Elevation: 357.9 ft.340.8 ft.
Traffic pattern: leftleft
Runway heading: 125 magnetic, 121 true305 magnetic, 301 true
Markings: nonprecision, in fair conditionnonprecision, in fair condition
Visual slope indicator: 4-light PAPI on right (3.60 degrees glide path)4-light PAPI on left (3.00 degrees glide path)
Runway end identifier lights: yesyes
Touchdown point: yes, no lightsyes, no lights

Airport Ownership and Management from official FAA records

Ownership: Publicly-owned
Owner: TOWN OF OZARK
P.O. BOX 1987
OZARK, AL 36361
Phone 334-774-5393
Manager: DENSIE ELLIS
3269 HWY 231 S
OZARK, AL 36360
Phone 334 445 5045

Airport Operational Statistics

Aircraft based on the field: 28
Single engine airplanes: 18
Multi engine airplanes: 2
Helicopters: 8
    
Aircraft operations: avg 251/day *
59% transient general aviation
41% local general aviation
* for 12-month period ending 01 January 2018

Additional Remarks

LOW FLYING HOP IN TFC PAT.
RWY & PARL TWYS CNTRLN SEPN IS 240 FT.
PILOTS DEPG BLACKWELL VFR TO THE EAST OR NORTH RMN AT 1500 FT MSL OR BLW TIL APRXLY 5 MI FM THE ARPT TO AVOID CONFLICT WITH TFC ON IFR APCH TO THE DOTHAN ARPT.
FOR CD CTC CAIRNS APCH AT 334-255-8402, WHEN APCH CLSD CTC JACKSONVILLE ARTCC AT 904-845-1592.

Instrument Procedures

NOTE: All procedures below are presented as PDF files. If you need a reader for these files, you should download the free Adobe Reader.

NOT FOR NAVIGATION. Please procure official charts for flight.
FAA instrument procedures published for use from 26 March 2020 at 0901Z to 23 April 2020 at 0900Z.

 
IAPs - Instrument Approach Procedures
RNAV (GPS) RWY 13   download (189KB)
RNAV (GPS) RWY 31   download (182KB)
VOR RWY 31 **CHANGED**   download (216KB)
NOTE: Special Take-Off Minimums/Departure Procedures apply   download (329KB)

Other nearby airports with instrument procedures:

KHEY - Hanchey Army Heliport (Fort Rucker) (5 nm S)
KLOR - Lowe Army Heliport (Fort Rucker) (8 nm SW)
KOZR - Cairns Army Airfield (Fort Rucker) (11 nm SW)
KDHN - Dothan Regional Airport (11 nm SE)
0J6 - Headland Municipal Airport (16 nm E)
KEDN - Enterprise Municipal Airport (16 nm SW)
 
Loc | Ops | Rwys | IFR | FBO | Links
Com | Nav | Svcs | Stats | Notes

Continental Services
AirBoss

 
Area around 71J (Ozark-Blackwell Field Airport)
 
Road maps at: MapQuest Bing Google
 
Aerial photo
WARNING: Photo may not be current or correct
Aerial photo of 71J (Ozark-Blackwell Field Airport)
Photo by Bill Mansfield
Photo taken 20-Aug-2006
on final for runway 30

Do you have a better or more recent aerial photo of Ozark-Blackwell Field Airport that you would like to share? If so, please send us your photo.

 
Sectional chart

 
Airport distance calculator
Flying to Ozark-Blackwell Field Airport? Find the distance to fly.

From to 71J

Sunrise and sunset
Times for 31-Mar-2020
 Local
(UTC-5)
 Zulu
(UTC)
Morning civil twilight06:0811:08
Sunrise06:3211:32
Sunset19:0100:01
Evening civil twilight19:2500:25

Current date and time
Zulu (UTC)  31-Mar-2020 20:25:32
Local (UTC-5)  31-Mar-2020 15:25:32
 
METAR
KHEY 
5nm S 
311922Z AUTO 27005KT 10SM BKN010 OVC090 19/18 A2967 RMK AO2 PRESFR SLP048
KLOR 
8nm SW 
311929Z AUTO 26010KT 10SM BKN010 OVC014 20/19 A2968 RMK AO2 BKN V OVC SLP033
KOZR 
10nm SW 
311921Z AUTO 26007KT 10SM OVC008 19/18 A2969 RMK AO2 SLP055
KDHN 
11nm SE 
311953Z 28012KT 10SM BKN010 BKN090 21/18 A2971 RMK AO2 RAB1854E03 SLP056 P0000 T02110178
KSXS 
12nm W 
311923Z AUTO 30007KT 10SM OVC010 20/18 A2968 RMK AO2 SLP050
KEDN 
16nm SW 
311955Z AUTO 28008G15KT 230V300 10SM BKN015 BKN019 OVC028 22/19 A2969 RMK AO2 T02170188
TAF
KOZR 
10nm SW 
311600Z 3116/0122 20012KT 8000 -SHRA SCT020 510062 QNH2958INS TEMPO 3116/3119 VRB20G40KT 6000 -TSRA BKN015CB OVC030 TEMPO 3119/3121 VRB20G30KT 8000 -TSRA BKN025CB BECMG 3120/3121 32015G20KT 9999 NSW SCT090 QNH2965INS BECMG 0105/0106 34012G18KT 9999 SCT030 QNH2978INS BECMG 0108/0109 33012KT 9999 FEW050 QNH2985INS BECMG 0114/0115 36012G18KT 9999 SKC QNH2992INS BECMG 0120/0121 35009KT 9999 SKC QNH2999INS TX24/3116Z TN09/0111Z
KDHN 
11nm SE 
311736Z 3118/0118 30020G35KT 4SM TSRA OVC035CB FM312000 32020G25KT P6SM BKN080 FM010600 33010KT P6SM SKC FM011200 34009KT P6SM SKC WS020/00035KT FM011400 35012G20KT P6SM SKC
NOTAMs
Click for the latest NOTAMs
NOTAMs are issued by the DoD/FAA and will open in a separate window not controlled by AirNav.

 

 
 

FBO, Fuel Providers, and Aircraft Ground Support

  
 Business Name 
 
 Contact 
 
 Services / Description 
 
Fuel Prices
 
Comments
  
 City of Ozark (FBO)
334-445-5045
334-432-0039
[email]
Airport management, Aviation fuel, Aircraft ground handling, Aircraft parking (ramp or tiedown), Hangars, Hangar leasing / sales, Passenger terminal and lounge, ...

More info about City of Ozark (FBO)
Shell
100LL Jet A
FS --- $3.25 
SS $3.78 --- 
 Updated 18-Mar-2020
 
   4 read write
FS=Full service
SS=Self service
Update Fuel Prices
 

Would you like to see your business listed on this page?

 If your business provides an interesting product or service to pilots, flight crews, aircraft, or users of the Ozark-Blackwell Field Airport, you should consider listing it here.  To start the listing process, click on the button below
 
Add a business
 

Other Pages about Ozark-Blackwell Field Airport

Update a link
 
Copyright © AirNav, LLC. All rights reserved. Privacy Policy  Contact